Location: Sardis
(32.9753°N, 81.7579°W)
Time: 01:22:13
(UTC+00:00)

ISS - Visible Passes

Search period start: 19 August 2022 00:00
Search period end: 29 August 2022 00:00
Orbit: 412 x 420 km, 51.6° (Epoch: 18 August)

Date Brightness Start Highest point End Pass type
(mag) Time Alt. Az. Time Alt. Az. Time Alt. Az.
20 Aug -1.1 09:40:51 10° SSE 09:42:49 15° SE 09:44:47 10° E visible
22 Aug -3.2 09:40:26 25° SSW 09:42:04 51° SE 09:45:20 10° NE visible
23 Aug -1.8 08:54:07 24° ESE 08:54:07 24° ESE 08:56:22 10° ENE visible
23 Aug -2.2 10:27:25 10° W 10:30:13 24° NW 10:33:01 10° NNE visible
24 Aug -3.1 09:40:36 33° W 09:41:29 42° NW 09:44:42 10° NNE visible
25 Aug -2.2 08:54:05 35° NE 08:54:05 35° NE 08:56:11 10° NE visible
25 Aug -1.2 10:29:07 10° NW 10:30:00 11° NNW 10:30:52 10° NNW visible
26 Aug -1.7 09:40:24 16° NW 09:41:07 16° NNW 09:43:20 10° N visible
27 Aug -1.4 08:53:45 19° N 08:53:45 19° N 08:55:11 10° NNE visible
